Location: Ward Pound Ridge Reservation
(41.2500°N, 73.6000°W)
Time: 11:59:58
(UTC-05:00)

Vanguard 1 Rocket - All Passes

Search period start: 16 January 2018 00:00
Search period end: 26 January 2018 00:00
Orbit: 656 x 4222 km, 34.3° (Epoch: 15 January)

Date Brightness Start Highest point End Pass type
(mag) Time Alt. Az. Time Alt. Az. Time Alt. Az.
16 Jan - 06:16:52 10° SSW 06:25:36 22° SSE 06:31:20 10° ESE visible
16 Jan - 08:43:34 10° WSW 08:51:18 38° S 08:56:09 10° ESE daylight
16 Jan - 11:10:52 10° WSW 11:15:49 35° S 11:19:51 10° SE daylight
16 Jan - 13:37:56 10° SW 13:39:55 13° SSW 13:42:00 10° S daylight
17 Jan - 05:05:35 10° S 05:13:48 17° SSE 05:19:41 10° ESE visible
17 Jan - 07:30:53 10° SW 07:40:17 35° SSE 07:45:52 10° ESE daylight
17 Jan - 09:58:51 10° WSW 10:05:18 42° S 10:09:42 10° ESE daylight
17 Jan - 12:25:54 10° WSW 12:29:25 21° SSW 12:32:46 10° SSE daylight
18 Jan - 03:56:33 10° SSE 04:01:35 12° SSE 04:05:48 10° SE visible
18 Jan - 06:18:07 10° SW 06:28:53 30° SSE 06:35:20 10° ESE visible
18 Jan - 08:46:15 10° WSW 08:54:34 44° S 08:59:35 10° ESE daylight
18 Jan - 11:14:06 10° WSW 11:19:01 31° SSW 11:22:57 10° SE daylight
19 Jan - 05:05:44 10° SSW 05:17:03 24° SSE 05:24:18 10° ESE visible
19 Jan - 07:33:09 10° SW 07:43:32 42° S 07:49:25 10° E daylight
19 Jan - 10:01:52 10° WSW 10:08:32 42° S 10:13:00 10° ESE daylight
19 Jan - 12:29:43 10° WSW 12:32:30 15° SSW 12:35:09 10° S daylight
20 Jan - 03:54:24 10° S 04:04:47 18° SSE 04:12:11 10° ESE visible
20 Jan - 06:19:47 10° SW 06:32:07 37° SSE 06:39:03 10° E visible
20 Jan - 08:49:02 10° WSW 08:57:49 48° S 09:02:58 10° ESE daylight
20 Jan - 11:17:24 10° W 11:22:09 26° SSW 11:25:56 10° SE daylight
21 Jan - 02:46:03 10° SSE 02:52:08 12° SE 02:57:18 10° SE visible
21 Jan - 05:06:36 10° SSW 05:20:15 31° SSE 05:28:19 10° E visible
21 Jan - 07:35:35 10° WSW 07:46:46 48° S 07:52:52 10° E daylight
21 Jan - 10:04:57 10° W 10:11:44 39° SSW 10:16:13 10° SE daylight
21 Jan - 12:34:23 10° SW 12:35:30 11° SSW 12:36:36 10° SSW daylight
22 Jan - 03:54:07 10° SSW 04:07:56 25° SSE 04:16:52 10° ESE visible
22 Jan - 06:21:45 10° SW 06:35:19 44° SSE 06:42:36 10° E visible
22 Jan - 08:51:54 10° WSW 09:01:01 49° S 09:06:19 10° ESE daylight
22 Jan - 11:20:50 10° WSW 11:25:12 21° SSW 11:28:43 10° SSE daylight
23 Jan - 02:43:12 10° S 02:55:13 18° SSE 03:04:03 10° ESE visible
23 Jan - 05:07:55 10° SW 05:23:24 39° SSE 05:32:02 10° E visible
23 Jan - 07:38:09 10° WSW 07:49:59 53° S 07:56:16 10° ESE daylight
23 Jan - 10:08:03 10° W 10:14:51 35° SSW 10:19:21 10° SE daylight
24 Jan - 01:36:34 10° SSE 01:42:13 11° SE 01:47:12 10° SE visible
24 Jan - 03:54:37 10° SSW 04:11:01 32° SSE 04:20:57 10° E visible
24 Jan - 06:23:56 10° WSW 06:38:29 51° S 06:46:05 10° E visible
24 Jan - 08:54:47 10° W 09:04:12 48° SSW 09:09:36 10° ESE daylight
24 Jan - 11:24:30 10° WSW 11:28:09 17° SW 11:31:11 10° S daylight
25 Jan - 02:42:27 10° SSW 02:58:12 25° SSE 03:08:55 10° E visible
25 Jan - 05:09:35 10° SW 05:26:31 46° SSE 05:35:36 10° E visible
25 Jan - 07:40:49 10° WSW 07:53:09 56° S 07:59:38 10° ESE daylight
25 Jan - 10:11:12 10° W 10:17:53 30° SSW 10:22:21 10° SE daylight
